Location: Vihti�l�
(61.3833°N, 23.0667°E)
Time: 05:49:14
(UTC+00:00)

Cosmos 1766 Rocket - Pass Details

Date: 29 November 2020
Orbit: 604 x 633 km, 82.5° (Epoch: 22 January)

Event Time Altitude Azimuth Distance (km) Brightness Sun altitude
Exits shadow 04:58:04 14° 249° (WSW) 1,764 5.4 -14.0°
Maximum altitude 05:01:07 28° 302° (WNW) 1,206 4.5 -13.6°
Drops below altitude 10° 05:05:00 10° 2° (N) 2,026 6.0 -13.2°
Sets 05:07:32 0° 14° (NNE) 2,933 7.0 -12.9°
